Adelanto, California, United States (92301)
Lat: 34.58N, Lon: 117.41W
Wx Zone: CAZ060
Local Info
Past Weather Observations for Saturday, December 13, 2014

NOTE: This archive is for the closest National Weather Service station to Adelanto. Information may differ from the station used for current weather conditions.

Click here for Long-term Archive

Time Weather Temperature Dewpoint Humidity Pressure Winds Precip Visibility
23:55
Fair
37°F / 3°C 34°F / 1°C 87% 30.12 in
(1020 mb)
S 5.8 mph
(S 9 kph)
- 10SM
23:35
Fair
37°F / 3°C 34°F / 1°C 87% 30.12 in
(1020 mb)
SSE 5.8 mph
(SSE 9 kph)
- 10SM
23:15
Fair
39°F / 4°C 34°F / 1°C 81% 30.12 in
(1020 mb)
SSE 5.8 mph
(SSE 9 kph)
- 10SM
22:55
Fair
37°F / 3°C 34°F / 1°C 87% 30.15 in
(1021 mb)
S 6.9 mph
(S 11 kph)
- 10SM
22:35
Fair
39°F / 4°C 34°F / 1°C 81% 30.15 in
(1021 mb)
SSE 8.1 mph
(SSE 13 kph)
- 10SM
22:15
Fair
39°F / 4°C 34°F / 1°C 81% 30.15 in
(1021 mb)
SE 6.9 mph
(SE 11 kph)
- 10SM
21:55
Clear
37°F / 3°C 34°F / 1°C 87% 30.15 in
(1021 mb)
S 5.8 mph
(S 9 kph)
- 10SM
21:35
Clear
39°F / 4°C 34°F / 1°C 81% 30.15 in
(1021 mb)
SW 6.9 mph
(SW 11 kph)
- 10SM
21:15
Clear
39°F / 4°C 34°F / 1°C 81% 30.15 in
(1021 mb)
SSE 6.9 mph
(SSE 11 kph)
- 10SM
20:55
Clear
39°F / 4°C 34°F / 1°C 81% 30.15 in
(1021 mb)
SW 6.9 mph
(SW 11 kph)
- 10SM
20:35
Clear
39°F / 4°C 36°F / 2°C 87% 30.15 in
(1021 mb)
Calm - 10SM
20:15
Fair
39°F / 4°C 34°F / 1°C 81% 30.15 in
(1021 mb)
Calm - 10SM
19:55
Fair
41°F / 5°C 36°F / 2°C 81% 30.15 in
(1021 mb)
W 3.5 mph
(W 6 kph)
- 10SM
19:35
Fair
41°F / 5°C 36°F / 2°C 81% 30.15 in
(1021 mb)
Calm - 10SM
19:15
Fair
43°F / 6°C 36°F / 2°C 76% 30.12 in
(1020 mb)
SSW 6.9 mph
(SSW 11 kph)
- 10SM
18:55
Clear
43°F / 6°C 36°F / 2°C 76% 30.12 in
(1020 mb)
SSW 10.4 mph
(SSW 17 kph)
- 10SM
18:35
Clear
43°F / 6°C 36°F / 2°C 76% 30.12 in
(1020 mb)
SSW 8.1 mph
(SSW 13 kph)
- 10SM
18:15
Clear
45°F / 7°C 37°F / 3°C 76% 30.12 in
(1020 mb)
W 10.4 mph
(W 17 kph)
- 10SM
17:55
Clear
45°F / 7°C 37°F / 3°C 76% 30.12 in
(1020 mb)
W 9.2 mph
(W 15 kph)
- 10SM
17:35
Clear
46°F / 8°C 37°F / 3°C 71% 30.09 in
(1019 mb)
W 6.9 mph
(W 11 kph)
- 10SM
17:15
Clear
46°F / 8°C 37°F / 3°C 71% 30.09 in
(1019 mb)
W 6.9 mph
(W 11 kph)
- 10SM
16:55
Clear
46°F / 8°C 37°F / 3°C 71% 30.09 in
(1019 mb)
W 8.1 mph
(W 13 kph)
- 10SM
16:35
Clear
48°F / 9°C 37°F / 3°C 66% 30.09 in
(1019 mb)
W 10.4 mph
(W 17 kph)
- 10SM
16:15
Clear
48°F / 9°C 37°F / 3°C 66% 30.09 in
(1019 mb)
W 11.5 mph
(W 19 kph)
- 10SM
15:55
Clear
50°F / 10°C 36°F / 2°C 58% 30.09 in
(1019 mb)
W 10.4 mph
(W 17 kph)
- 10SM
15:35
Clear
50°F / 10°C 37°F / 3°C 62% 30.09 in
(1019 mb)
W 13.8 mph
(W 22 kph)
- 10SM
15:15
Clear
52°F / 11°C 37°F / 3°C 58% 30.09 in
(1019 mb)
W 16.1 mph
(W 26 kph)
- 10SM
14:55
Clear
52°F / 11°C 36°F / 2°C 54% 30.09 in
(1019 mb)
W 13.8 mph
(W 22 kph)
- 10SM
14:35
Clear
52°F / 11°C 36°F / 2°C 54% 30.09 in
(1019 mb)
W 15 mph
(W 24 kph)
- 10SM
14:15
Clear
52°F / 11°C 37°F / 3°C 58% 30.09 in
(1019 mb)
W 16.1 mph
(W 26 kph)
- 10SM
13:55
Clear
52°F / 11°C 37°F / 3°C 58% 30.09 in
(1019 mb)
W 16.1 mph
(W 26 kph)
- 10SM
13:35
Clear
52°F / 11°C 37°F / 3°C 58% 30.09 in
(1019 mb)
SSW 16.1 mph
(SSW 26 kph)
- 10SM
13:15
Clear
52°F / 11°C 37°F / 3°C 58% 30.09 in
(1019 mb)
W 16.1 mph
(W 26 kph)
- 10SM
12:55
Clear
52°F / 11°C 36°F / 2°C 54% 30.09 in
(1019 mb)
W 16.1 mph
(W 26 kph)
- 10SM
12:35
Clear
52°F / 11°C 36°F / 2°C 54% 30.09 in
(1019 mb)
W 15 mph
(W 24 kph)
- 10SM
12:15
Clear
50°F / 10°C 36°F / 2°C 58% 30.09 in
(1019 mb)
W 13.8 mph
(W 22 kph)
- 10SM
11:55
Clear
50°F / 10°C 36°F / 2°C 58% 30.09 in
(1019 mb)
W 16.1 mph
(W 26 kph)
- 10SM
11:35
Clear
50°F / 10°C 37°F / 3°C 62% 30.09 in
(1019 mb)
W 16.1 mph
(W 26 kph)
- 10SM
11:15
Clear
50°F / 10°C 36°F / 2°C 58% 30.12 in
(1020 mb)
W 17.3 mph
(W 28 kph)
- 10SM
10:55
Clear
48°F / 9°C 36°F / 2°C 62% 30.12 in
(1020 mb)
W 18.4 mph
(W 30 kph)
- 10SM
10:35
Clear
48°F / 9°C 36°F / 2°C 62% 30.12 in
(1020 mb)
W 13.8 mph
(W 22 kph)
- 10SM
10:15
Clear
48°F / 9°C 36°F / 2°C 62% 30.12 in
(1020 mb)
W 12.7 mph
(W 20 kph)
- 10SM
09:55
Clear
46°F / 8°C 36°F / 2°C 66% 30.12 in
(1020 mb)
W 15 mph
(W 24 kph)
- 10SM
09:35
Clear
46°F / 8°C 36°F / 2°C 66% 30.12 in
(1020 mb)
W 15 mph
(W 24 kph)
- 10SM
09:15
Fair
46°F / 8°C 36°F / 2°C 66% 30.12 in
(1020 mb)
W 13.8 mph
(W 22 kph)
- 10SM
08:55
Fair
45°F / 7°C 36°F / 2°C 71% 30.12 in
(1020 mb)
SSW 10.4 mph
(SSW 17 kph)
- 10SM
08:35
Partly Cloudy
45°F / 7°C 36°F / 2°C 71% 30.12 in
(1020 mb)
SSW 10.4 mph
(SSW 17 kph)
- 10SM
08:15
Clear
43°F / 6°C 36°F / 2°C 76% 30.09 in
(1019 mb)
W 8.1 mph
(W 13 kph)
- 10SM
07:55
Clear
43°F / 6°C 34°F / 1°C 71% 30.09 in
(1019 mb)
SSW 8.1 mph
(SSW 13 kph)
- 10SM
07:35
Fair
41°F / 5°C 34°F / 1°C 76% 30.09 in
(1019 mb)
Calm - 10SM
07:15
Fair
39°F / 4°C 34°F / 1°C 81% 30.09 in
(1019 mb)
SSW 8.1 mph
(SSW 13 kph)
- 10SM
06:55
Fair
39°F / 4°C 34°F / 1°C 81% 30.06 in
(1018 mb)
SSW 5.8 mph
(SSW 9 kph)
- 10SM
06:35
Fair
39°F / 4°C 34°F / 1°C 81% 30.06 in
(1018 mb)
SSW 13.8 mph
(SSW 22 kph)
- 10SM
06:15
Fair
39°F / 4°C 34°F / 1°C 81% 30.06 in
(1018 mb)
SSW 12.7 mph
(SSW 20 kph)
- 10SM
05:55
Fair
39°F / 4°C 34°F / 1°C 81% 30.06 in
(1018 mb)
Calm - 10SM
05:35
Fair
39°F / 4°C 34°F / 1°C 81% 30.04 in
(1017 mb)
Calm - 10SM
05:15
Fair
39°F / 4°C 34°F / 1°C 81% 30.04 in
(1017 mb)
SSW 12.7 mph
(SSW 20 kph)
- 10SM
04:55
Clear
39°F / 4°C 36°F / 2°C 87% 30.04 in
(1017 mb)
SW 12.7 mph
(SW 20 kph)
- 10SM
04:35
Clear
39°F / 4°C 36°F / 2°C 87% 30.04 in
(1017 mb)
SW 11.5 mph
(SW 19 kph)
- 10SM
04:15
Clear
39°F / 4°C 36°F / 2°C 87% 30.04 in
(1017 mb)
Calm - 10SM
03:55
Clear
39°F / 4°C 36°F / 2°C 87% 30.04 in
(1017 mb)
Calm - 10SM
03:35
Clear
39°F / 4°C 36°F / 2°C 87% 30.04 in
(1017 mb)
Calm - 10SM
03:15
Clear
39°F / 4°C 36°F / 2°C 87% 30.06 in
(1018 mb)
Calm - 10SM
02:55
Fair
41°F / 5°C 37°F / 3°C 87% 30.06 in
(1018 mb)
SSW 3.5 mph
(SSW 6 kph)
- 10SM
02:35
Fair
43°F / 6°C 37°F / 3°C 81% 30.06 in
(1018 mb)
SW 4.6 mph
(SW 7 kph)
- 10SM
02:15
Fair
41°F / 5°C 37°F / 3°C 87% 30.06 in
(1018 mb)
Calm - 10SM
01:55
Clear
41°F / 5°C 37°F / 3°C 87% 30.06 in
(1018 mb)
Calm - 10SM
01:35
Clear
43°F / 6°C 37°F / 3°C 81% 30.04 in
(1017 mb)
Calm - 10SM
01:15
Clear
43°F / 6°C 37°F / 3°C 81% 30.04 in
(1017 mb)
SSW 3.5 mph
(SSW 6 kph)
- 10SM
00:55
Partly Cloudy
43°F / 6°C 37°F / 3°C 81% 30.04 in
(1017 mb)
SW 10.4 mph
(SW 17 kph)
- 10SM
00:35
Clear
43°F / 6°C 37°F / 3°C 81% 30.04 in
(1017 mb)
SSW 9.2 mph
(SSW 15 kph)
- 10SM
00:15
Clear
43°F / 6°C 37°F / 3°C 81% 30.04 in
(1017 mb)
SW 8.1 mph
(SW 13 kph)
- 10SM
Time Weather Temperature Dewpoint Humidity Pressure Winds Precip Visibility


Weather for websites

WeatherForYou.com, LLC is not responsible for any damages or problems caused by this service. Current weather conditions are obtained from the closest station including government and personal stations which may have varying degrees of accuracy. Weather forecasts are derived from the NOAA NDFD. Like all things, this site belongs to Jesus Christ... He just trusts me to maintain it. If you have any questions or comments email webmaster@weatherforyou.com

Copyright © 2014, WeatherForYou.com LLC. All rights reserved.